Location: Elk Horn Observatory
(36.6768°N, 80.8309°W)
Time: 00:05:14
(UTC-04:00)

Envisat - Pass Details

Date: 01 February 2019
Orbit: 764 x 766 km, 98.1° (Epoch: 23 October)

Event Time Altitude Azimuth Distance (km) Brightness Sun altitude
Rises 20:34:10 0° 215° (SW) 3,218 6.6 -33.3°
Reaches altitude 10° 20:37:53 10° 243° (WSW) 2,298 6.1 -34.1°
Maximum altitude 20:40:04 13° 269° (W) 2,116 6.0 -34.5°
Drops below altitude 10° 20:42:15 10° 295° (WNW) 2,304 6.2 -35.0°
Sets 20:46:00 0° 324° (NW) 3,236 6.7 -35.7°
